Date String (YYYY-MM-DD hh:mm:ss) UTC,Instrument flags,Ambient pressure (hPa),Sample flow (lpm),Bypass flow (lpm),Sample temperature (°C),Ambient temperature (°C),ASC tube jacket temperature (°C),LED temperature (°C),Box temperature (°C),Sample RH (%),Span deviation,Mass concentration (μg/m³),Mass concentration (μg/m³),Mass concentration (μg/m³)
DateTimeUTC,F1_M11,P_M11,Q1_M11,Q2_M11,T1_M11,T2_M11,T3_M11,T4_M11,T5_M11,U1_M11,ZSPAN_M11,X0_M11,X2_M11,X1_M11
2021-12-06 01:00:00,,0829.7,4.99,0.00,23.0,22.0,00.0,32.4,24.5,09.7,0000.0,0020.00,0003.72,0001.42
2021-12-06 01:01:00,,0829.8,5.02,0.00,23.0,22.0,00.0,32.4,24.5,09.8,0000.0,0019.95,0003.72,0001.43
2021-12-06 01:02:00,,0829.9,4.99,0.00,22.9,22.0,00.0,32.3,24.4,09.8,0000.0,0019.28,0003.73,0001.43
2021-12-06 01:03:00,,0829.9,4.99,0.00,22.9,22.0,00.0,32.3,24.4,09.8,0000.0,0020.46,0003.74,0001.42
2021-12-06 01:04:00,,0829.8,5.00,0.00,22.9,21.9,00.0,32.3,24.4,09.9,0000.0,0021.54,0003.78,0001.43
2021-12-06 01:05:00,,0829.8,5.01,0.00,22.9,21.9,00.0,32.2,24.4,09.9,0000.0,0020.76,0003.86,0001.42
2021-12-06 01:06:00,,0829.9,4.99,0.00,22.8,21.9,00.0,32.2,24.3,10.0,0000.0,0021.36,0003.95,0001.44
2021-12-06 01:07:00,,0829.9,5.00,0.00,22.8,21.9,00.0,32.2,24.3,10.0,0000.0,0021.48,0004.01,0001.47
2021-12-06 01:08:00,,0829.8,5.00,0.00,22.7,21.8,00.0,32.1,24.2,10.0,0000.0,0020.13,0004.07,0001.47
2021-12-06 01:09:00,,0829.9,5.00,0.00,22.7,21.8,00.0,32.1,24.2,10.0,0000.0,0019.96,0004.14,0001.49
2021-12-06 01:10:00,,0829.9,5.02,0.00,22.7,21.8,00.0,32.1,24.2,10.0,0000.0,0020.23,0004.21,0001.51
2021-12-06 01:11:00,,0829.9,4.98,0.00,22.7,21.7,00.0,32.0,24.1,10.0,0000.0,0020.59,0004.28,0001.53
2021-12-06 01:12:00,,0830.1,5.00,0.00,22.6,21.7,00.0,32.0,24.1,10.0,0000.0,0021.41,0004.38,0001.56
2021-12-06 01:13:00,,0830.2,5.01,0.00,22.6,21.7,00.0,32.0,24.1,10.1,0000.0,0023.50,0004.48,0001.58
2021-12-06 01:14:00,,0830.2,5.00,0.00,22.6,21.7,00.0,31.9,24.1,10.1,0000.0,0021.66,0004.56,0001.61
2021-12-06 01:15:00,,0830.2,5.01,0.00,22.5,21.6,00.0,31.9,24.0,10.1,0000.0,0023.07,0004.53,0001.62
2021-12-06 01:16:00,,0830.2,4.99,0.00,22.5,21.6,00.0,31.9,24.0,10.1,0000.0,0024.15,0004.50,0001.65
2021-12-06 01:17:00,,0830.1,5.00,0.00,22.5,21.6,00.0,31.8,24.0,10.1,0000.0,0025.39,0004.53,0001.67
2021-12-06 01:18:00,,0830.1,4.99,0.00,22.5,21.6,00.0,31.8,24.0,10.1,0000.0,0025.73,0004.59,0001.66
2021-12-06 01:19:00,,0830.1,5.02,0.00,22.4,21.5,00.0,31.8,24.0,10.1,0000.0,0026.59,0004.53,0001.68
2021-12-06 01:20:00,,0830.2,4.99,0.00,22.4,21.5,00.0,31.8,24.0,10.1,0000.0,0026.29,0004.48,0001.69
2021-12-06 01:21:00,,0830.2,5.01,0.00,22.4,21.5,00.0,31.7,24.0,10.1,0000.0,0026.52,0004.44,0001.69
2021-12-06 01:22:00,,0830.2,5.00,0.00,22.4,21.5,00.0,31.7,24.0,10.1,0000.0,0027.18,0004.37,0001.69
2021-12-06 01:23:00,,0830.2,5.00,0.00,22.4,21.6,00.0,31.7,24.0,10.1,0000.0,0025.58,0004.33,0001.69
2021-12-06 01:24:00,,0830.2,4.99,0.00,22.4,21.6,00.0,31.7,24.0,10.1,0000.0,0024.21,0004.23,0001.69
2021-12-06 01:25:00,,0830.2,5.00,0.00,22.4,21.6,00.0,31.7,24.0,10.1,0000.0,0025.13,0004.19,0001.73
2021-12-06 01:26:00,,0830.1,5.01,0.00,22.4,21.6,00.0,31.6,24.0,10.1,0000.0,0022.48,0004.22,0001.76
2021-12-06 01:27:00,,0830.1,5.00,0.00,22.4,21.6,00.0,31.6,23.9,10.1,0000.0,0021.53,0004.17,0001.79
2021-12-06 01:28:00,,0830.1,5.01,0.00,22.3,21.5,00.0,31.6,23.9,10.1,0000.0,0021.15,0004.15,0001.82
2021-12-06 01:29:00,,0830.1,4.99,0.00,22.3,21.5,00.0,31.6,23.9,10.1,0000.0,0021.71,0004.12,0001.86
2021-12-06 01:30:00,,0830.1,5.00,0.00,22.3,21.5,00.0,31.6,23.9,10.1,0000.0,0021.31,0004.16,0001.89
2021-12-06 01:31:00,,0830.1,5.01,0.00,22.3,21.5,00.0,31.5,23.9,10.0,0000.0,0020.88,0004.17,0001.90
2021-12-06 01:32:00,,0830.1,4.99,0.00,22.3,21.4,00.0,31.5,23.8,10.0,0000.0,0019.71,0004.14,0001.89
2021-12-06 01:33:00,,0830.2,5.01,0.00,22.3,21.5,00.0,31.5,23.8,10.0,0000.0,0019.36,0004.15,0001.87
2021-12-06 01:34:00,,0830.2,5.00,0.00,22.3,21.4,00.0,31.5,23.8,10.0,0000.0,0021.02,0004.11,0001.86
2021-12-06 01:35:00,,0830.2,4.99,0.00,22.2,21.4,00.0,31.5,23.8,09.9,0000.0,0021.45,0004.04,0001.83
2021-12-06 01:36:00,,0830.1,5.00,0.00,22.2,21.4,00.0,31.5,23.8,09.8,0000.0,0020.65,0003.96,0001.77
2021-12-06 01:37:00,,0830.1,5.00,0.00,22.2,21.3,00.0,31.4,23.7,09.8,0000.0,0021.20,0003.88,0001.72
2021-12-06 01:38:00,,0830.1,5.01,0.00,22.2,21.4,00.0,31.4,23.7,09.8,0000.0,0021.02,0003.86,0001.66
2021-12-06 01:39:00,,0830.3,5.01,0.00,22.2,21.3,00.0,31.4,23.7,09.7,0000.0,0020.30,0003.81,0001.61
2021-12-06 01:40:00,,0830.3,5.00,0.00,22.1,21.3,00.0,31.4,23.7,09.7,0000.0,0019.88,0003.70,0001.56
2021-12-06 01:41:00,,0830.2,5.00,0.00,22.1,21.2,00.0,31.4,23.6,09.8,0000.0,0019.57,0003.61,0001.52
2021-12-06 01:42:00,,0830.1,5.01,0.00,22.0,21.2,00.0,31.3,23.5,09.8,0000.0,0020.28,0003.60,0001.49
2021-12-06 01:43:00,,0830.2,5.00,0.00,22.0,21.1,00.0,31.3,23.5,09.9,0000.0,0020.57,0003.57,0001.49
2021-12-06 01:44:00,,0830.2,5.00,0.00,22.0,21.1,00.0,31.3,23.4,09.9,0000.0,0019.36,0003.52,0001.50
2021-12-06 01:45:00,,0830.3,4.99,0.00,21.9,21.0,00.0,31.3,23.4,09.9,0000.0,0018.34,0003.47,0001.49
2021-12-06 01:46:00,,0830.4,5.01,0.00,21.9,21.0,00.0,31.2,23.4,09.9,0000.0,0017.41,0003.50,0001.49
2021-12-06 01:47:00,,0830.4,4.99,0.00,21.9,21.0,00.0,31.2,23.5,09.9,0000.0,0017.15,0003.52,0001.47
2021-12-06 01:48:00,,0830.4,5.00,0.00,21.9,21.0,00.0,31.2,23.4,09.9,0000.0,0017.14,0003.50,0001.46
2021-12-06 01:49:00,,0830.4,5.01,0.00,21.9,21.0,00.0,31.2,23.4,09.8,0000.0,0017.61,0003.47,0001.45
2021-12-06 01:50:00,,0830.4,5.00,0.00,21.9,21.0,00.0,31.1,23.4,09.8,0000.0,0017.37,0003.46,0001.45
2021-12-06 01:51:00,,0830.3,4.99,0.00,21.9,21.1,00.0,31.1,23.5,09.8,0000.0,0017.63,0003.46,0001.43
2021-12-06 01:52:00,,0830.2,5.00,0.00,21.9,21.1,00.0,31.1,23.5,09.8,0000.0,0017.60,0003.43,0001.42
2021-12-06 01:53:00,,0830.3,5.00,0.00,21.9,21.1,00.0,31.1,23.5,09.8,0000.0,0018.09,0003.39,0001.40
2021-12-06 01:54:00,,0830.4,5.01,0.00,21.9,21.1,00.0,31.1,23.5,09.8,0000.0,0018.01,0003.39,0001.40
2021-12-06 01:55:00,,0830.4,5.00,0.00,21.9,21.1,00.0,31.1,23.4,09.8,0000.0,0017.86,0003.37,0001.38
2021-12-06 01:56:00,,0830.4,5.00,0.00,21.9,21.1,00.0,31.1,23.5,09.8,0000.0,0017.46,0003.38,0001.35
2021-12-06 01:57:00,,0830.3,5.01,0.00,21.9,21.1,00.0,31.0,23.5,09.8,0000.0,0017.01,0003.37,0001.34
2021-12-06 01:58:00,,0830.4,5.00,0.00,21.9,21.1,00.0,31.0,23.5,09.9,0000.0,0017.10,0003.32,0001.34
2021-12-06 01:59:00,,0830.4,5.01,0.00,21.9,21.2,00.0,31.0,23.5,09.9,0000.0,0016.99,0003.29,0001.33
